Regional Weather Roundup
Issued by NWS

Home | Current Version | Previous Version | Graphics & Text | Print | Product List | Glossary Off
Versions: 1 2 3 4 5 6 7 8 9 10 11 12 13 14 15 16 17 18 19 20 21 22 23 24 25 26 27 28 29 30 31 32 33 34 35 36 37 38 39 40 41 42 43 44 45 46 47 48 49 50

000
ASUS43 KMKX 231311
RWRWI

WISCONSIN REGIONAL WEATHER ROUNDUP
NATIONAL WEATHER SERVICE MILWAUKEE/SULLIVAN WI
800 AM CDT WED AUG 23 2017

NOTE: "FAIR" INDICATES FEW OR NO CLOUDS BELOW 12,000 FEET WITH NO
SIGNIFICANT WEATHER AND/OR OBSTRUCTIONS TO VISIBILITY.

WIZ001-002-006>008-014>016-023>028-231400-
NORTHWEST WISCONSIN

CITY           SKY/WX    TMP DP  RH WIND       PRES   REMARKS
SUPERIOR ARPT    N/A     51  50  95 CALM      30.08R
ASHLAND        CLOUDY    56  52  86 NW8       30.06R
HAYWARD        SUNNY     52  49  89 S3        30.08R
SIREN          SUNNY     53  51  94 NW5       30.10R
CUMBERLAND     SUNNY     54  50  87 NW6       30.09R
RICE LAKE      SUNNY     54  53  94 CALM      30.10R
CHETEK         SUNNY     55  52  89 NW6       30.09R
LADYSMITH      SUNNY     55  52  89 NW6       30.08S
EAU CLAIRE     MOSUNNY   57  52  83 NW7       30.08R
MENOMONIE      SUNNY     56  52  84 W5        30.09R
NEW RICHMOND   SUNNY     56  52  86 W6        30.11R
OSCEOLA        SUNNY     53  53 100 CALM      30.14R
$$

WIZ003>005-009-010-017-018-231400-
NORTH CENTRAL WISCONSIN

CITY           SKY/WX    TMP DP  RH WIND       PRES   REMARKS
MANITOWISH WTR PTSUNNY   53  53 100 NW6       30.04R
ARBOR VITAE    PTSUNNY   57  55  93 NW6       30.04R
WOODRUFF       PTSUNNY   57  55  93 NW6       30.04R
RHINELANDER    MOSUNNY   55  54  96 W7        30.04R
EAGLE RIVER    CLOUDY    55  53  94 NW6       30.02S
LAND O LAKES   CLOUDY    54  51  90 NW3       30.04R
PHILLIPS       CLOUDY    51  51 100 W3        30.06R FOG
TOMAHAWK         N/A     52  51  97 NW3       30.06R
MEDFORD        SUNNY     52  50  95 NW3       30.06R
MERRILL        CLOUDY    52  52 100 NW6       30.06R
$$

WIZ029-030-035-036-043>047-231400-
CENTRAL WISCONSIN

CITY           SKY/WX    TMP DP  RH WIND       PRES   REMARKS
WAUSAU         SUNNY     55  51  86 NW7       30.04R
MOSINEE        MOSUNNY   55  54  94 NW6       30.06R
MARSHFIELD     SUNNY     56  51  84 NW8       30.05R
STEVENS POINT  SUNNY     54  51  91 NW6       30.05R
WAUPACA        SUNNY     60  53  78 NW5       30.03S
WAUTOMA        SUNNY     58  52  80 W7        30.05R
WISC RAPIDS    SUNNY     57  52  83 NW7       30.07R
CAMP DOUGLAS   SUNNY     57  54  88 NW5       30.06R
$$

WIZ011>013-019>022-031-037>040-048>050-231400-
NORTHEAST WISCONSIN

CITY           SKY/WX    TMP DP  RH WIND       PRES   REMARKS
ANTIGO         CLOUDY    53  53  99 NW9       30.04R
SHAWANO        SUNNY     58  53  84 NW5       30.01R
OCONTO         SUNNY     57  53  84 NW6       30.00R
STURGEON BAY   MOSUNNY   60  55  83 NW12      29.99R
GREEN BAY      SUNNY     58  55  90 NW10      30.00R
MANITOWOC      SUNNY     59  52  77 NW9       30.01R
APPLETON       SUNNY     55  54  94 W8        30.00R
CLINTONVILLE   SUNNY     55  52  88 NW7       30.02R
OSHKOSH        SUNNY     57  51  80 W8        30.02R
$$

WIZ032>034-041-042-053>061-231400-
SOUTHWEST WISCONSIN

CITY           SKY/WX    TMP DP  RH WIND       PRES   REMARKS
LA CROSSE      SUNNY     62  54  74 CALM      30.09R
SPARTA         SUNNY     54  51  90 W3        30.09R
VIROQUA        SUNNY     55  53  92 NW5       30.09R
BOSCOBEL       SUNNY     57  52  83 SW5       30.09R
PRAIRIE DU CHI SUNNY     58  49  73 NW6       30.09S
PLATTEVILLE    SUNNY     55  55  99 CALM      30.09R
$$

WIZ056-057-062-063-064-067-068-231400-
SOUTH CENTRAL WISCONSIN

CITY           SKY/WX    TMP DP  RH WIND       PRES   REMARKS
REEDSBURG      SUNNY     56  53  87 NW5       30.07R
BARABOO/DELLS  SUNNY     58  50  76 W6        30.07R
LONE ROCK      SUNNY     57  54  89 W5        30.08R
MINERAL POINT  SUNNY     55  54  94 NW3       30.08R
MADISON        SUNNY     59  52  77 NW5       30.05R
MIDDLETON      SUNNY     59  53  80 W3        30.07R
WATERTOWN      SUNNY     58  54  87 W5        30.04R
MONROE         SUNNY     55  50  82 NW8       30.07R
JANESVILLE     SUNNY     59  54  82 W3        30.05R
$$

WIZ051-052-058>065-066-070>072-231400-
SOUTHEAST WISCONSIN

CITY           SKY/WX    TMP DP  RH WIND       PRES   REMARKS
MILWAUKEE      SUNNY     64  52  64 NW10      30.02R
WAUKESHA       SUNNY     57  52  82 W9        30.04R
MILWAUKEE/TIMM SUNNY     59  48  67 NW8       30.03R
RACINE         SUNNY     61  53  75 NW8       30.03S
KENOSHA        SUNNY     61  52  72 NW10      30.03R
FOND DU LAC    SUNNY     59  51  75 W8        30.03R
SHEBOYGAN      SUNNY     60  56  86 NW7       30.01R
WEST BEND      SUNNY     59  52  77 NW8       30.03R
JUNEAU         SUNNY     57  52  81 W3        30.05S
$$

LSZ147-162-231400-
LAKE SUPERIOR

STATION/POSITION TIME  TEMP    WIND        PRES    WAVE
                       AIR SEA DIR/SP/G            HT/PER
                 (UTC) (F)     (DEG/KT/KT) (MB)    (FT/S)
W MID LAKE BUOY  1250   57 59  330/ 10/ 12 1016.6R   2/ 4
DEVILS ISLAND    1300   59     310/ 13/ 14 1017.7R
PORT WING        1140   60     200/  1/  4 1017.6
SAXON HARBOR     1240   55     210/  5/  7 1016.9R
$$

LMZ867-665-643>646-231400-
LAKE MICHIGAN

STATION/POSITION TIME  TEMP    WIND        PRES    WAVE
                       AIR SEA DIR/SP/G            HT/PER
                 (UTC) (F)     (DEG/KT/KT) (MB)    (FT/S)
S GREEN BAY BUOY 1300   60 70  300/ 14/ 17 1015.4
N MID LAKE BUOY  1250   60 66  310/ 16/ 19 1014.5R   3/ 4
NORTHPORT PIER   1240   62     320/ 17/ 22 1014.6R
KEWAUNEE LAKESHO 1248   59     310/  5/  8 1014.5R
SHEBOYGAN LAKESH 1300   60     300/ 10/ 12 1015.9R
PORT WASHINGTON  1240   61     300/  8/ 12 1016.9R
ATWATER BUOY     1209   62 67  300/ 12/ 14 1016.3R
MILWAUKEE LAKESH 1230   61     310/  9/ 11   N/A
S MID LAKE BUOY  1250   66 71  330/ 17/ 19 1015.5R   4/ 4
KENOSHA   LAKESH 1300   61     300/ 12/ 14 1016.6
$$

TC  - TEMPERATURE IN CELSIUS
VSB - VISIBILITY IN STATUTE MILES
WCI - WIND CHILL INDEX
HX  - HEAT INDEX





USA.gov is the U.S. government's official web portal to all federal, state and local government web resources and services.